"read_dt","SO2 (ppb)","flags","PMT voltage (V)","lamp voltage (V)","lamp intensity (Hz)","internal temp (C)","react chamber temp (C)","sample flow (l/min)","pres (mmHg)","SO2 bkg (ppb)","SO2 coefficient"
2013-09-09 00:00:00,1424E-4,5C000000,-0724,0941,11163,027.4,045.3,0.389,726.2,01.19,0.508
2013-09-09 00:01:00,6984E-5,5C000000,-0724,0940,11056,027.4,045.3,0.389,726.2,01.19,0.508
2013-09-09 00:02:00,1712E-4,5C000000,-0724,0942,11198,027.4,045.3,0.388,726.2,01.19,0.508
2013-09-09 00:03:00,1122E-4,5C000000,-0724,0939,11106,027.4,045.3,0.389,726.2,01.19,0.508
2013-09-09 00:04:00,1114E-4,5C000000,-0724,0941,11267,027.4,045.3,0.388,726.2,01.19,0.508
2013-09-09 00:05:00,1152E-4,5C000000,-0724,0940,11057,027.4,045.3,0.389,726.2,01.19,0.508
2013-09-09 00:06:00,1597E-4,5C000000,-0724,0941,10911,027.4,045.3,0.389,726.2,01.19,0.508
2013-09-09 00:07:00,9840E-5,5C000000,-0724,0941,11112,027.4,045.4,0.388,726.2,01.19,0.508
2013-09-09 00:08:00,5738E-5,5C000000,-0724,0942,11067,027.4,045.3,0.389,726.2,01.19,0.508
2013-09-09 00:09:00,6553E-5,5C000000,-0724,0941,11025,027.4,045.4,0.388,726.2,01.19,0.508
2013-09-09 00:10:00,7885E-5,5C000000,-0724,0941,11149,027.4,045.3,0.389,726.3,01.19,0.508
2013-09-09 00:11:00,2181E-5,5C000000,-0724,0941,10847,027.4,045.3,0.389,726.3,01.19,0.508
2013-09-09 00:12:00,8728E-5,5C000000,-0724,0940,11234,027.4,045.3,0.388,726.3,01.19,0.508
2013-09-09 00:13:00,1085E-4,5C000000,-0724,0942,11199,027.4,045.3,0.389,726.3,01.19,0.508
2013-09-09 00:14:00,7995E-5,5C000000,-0724,0942,11107,027.5,045.3,0.388,726.3,01.19,0.508
2013-09-09 00:15:00,1147E-4,5C000000,-0724,0941,11094,027.5,045.3,0.389,726.3,01.19,0.508
2013-09-09 00:16:00,1457E-4,5C000000,-0724,0941,11118,027.5,045.3,0.389,726.3,01.19,0.508
2013-09-09 00:17:00,1294E-4,5C000000,-0724,0942,11216,027.4,045.3,0.388,726.3,01.19,0.508
2013-09-09 00:18:00,7041E-5,5C000000,-0724,0942,11094,027.4,045.3,0.389,726.3,01.19,0.508
2013-09-09 00:19:00,1445E-4,5C000000,-0724,0940,11147,027.4,045.3,0.388,726.4,01.19,0.508
2013-09-09 00:20:00,1157E-4,5C000000,-0724,0940,11032,027.4,045.3,0.389,726.4,01.19,0.508
2013-09-09 00:21:00,1028E-4,5C000000,-0724,0941,11084,027.4,045.3,0.389,726.4,01.19,0.508
2013-09-09 00:22:00,1920E-4,5C000000,-0724,0941,11218,027.4,045.3,0.388,726.4,01.19,0.508
2013-09-09 00:23:00,1065E-4,5C000000,-0724,0941,11211,027.4,045.4,0.389,726.4,01.19,0.508
2013-09-09 00:24:00,1974E-4,5C000000,-0724,0942,11112,027.5,045.3,0.389,726.4,01.19,0.508
2013-09-09 00:25:00,1626E-4,5C000000,-0724,0941,10907,027.4,045.3,0.388,726.4,01.19,0.508
2013-09-09 00:26:00,1373E-4,5C000000,-0724,0942,11211,027.4,045.3,0.389,726.5,01.19,0.508
2013-09-09 00:27:00,1700E-4,5C000000,-0724,0941,11144,027.4,045.3,0.388,726.5,01.19,0.508
2013-09-09 00:28:00,2611E-5,5C000000,-0724,0942,11189,027.4,045.3,0.389,726.5,01.19,0.508
2013-09-09 00:29:00,2174E-4,5C000000,-0724,0941,11110,027.4,045.4,0.389,726.5,01.19,0.508
2013-09-09 00:30:00,1235E-4,5C000000,-0724,0941,11105,027.4,045.4,0.388,726.5,01.19,0.508
2013-09-09 00:31:00,9483E-5,5C000000,-0724,0941,10981,027.4,045.3,0.389,726.5,01.19,0.508
2013-09-09 00:32:00,1231E-4,5C000000,-0724,0942,11196,027.4,045.4,0.389,726.5,01.19,0.508
2013-09-09 00:33:00,8031E-5,5C000000,-0724,0941,11200,027.4,045.3,0.388,726.5,01.19,0.508
2013-09-09 00:34:00,1139E-4,5C000000,-0724,0941,11128,027.4,045.3,0.389,726.5,01.19,0.508
2013-09-09 00:35:00,6609E-5,5C000000,-0724,0942,11147,027.4,045.3,0.388,726.6,01.19,0.508
2013-09-09 00:36:00,1604E-4,5C000000,-0724,0942,10998,027.4,045.4,0.389,726.5,01.19,0.508
2013-09-09 00:37:00,9152E-5,5C000000,-0724,0941,11089,027.5,045.3,0.389,726.5,01.19,0.508
2013-09-09 00:38:00,7999E-5,5C000000,-0724,0942,11036,027.4,045.3,0.388,726.5,01.19,0.508
2013-09-09 00:39:00,1588E-4,5C000000,-0724,0941,11100,027.5,045.3,0.389,726.6,01.19,0.508
2013-09-09 00:40:00,1198E-4,5C000000,-0724,0941,11099,027.4,045.3,0.389,726.6,01.19,0.508
2013-09-09 00:41:00,8516E-5,5C000000,-0724,0940,11174,027.4,045.3,0.388,726.6,01.19,0.508
2013-09-09 00:42:00,1727E-4,5C000000,-0724,0941,11004,027.4,045.4,0.389,726.6,01.19,0.508
2013-09-09 00:43:00,1174E-4,5C000000,-0724,0941,11074,027.4,045.3,0.388,726.6,01.19,0.508
2013-09-09 00:44:00,1282E-4,5C000000,-0724,0941,11110,027.5,045.3,0.389,726.6,01.19,0.508
2013-09-09 00:45:00,4827E-5,5C000000,-0724,0941,11114,027.4,045.3,0.389,726.6,01.19,0.508
2013-09-09 00:46:00,1568E-4,5C000000,-0724,0941,10999,027.5,045.3,0.388,726.6,01.19,0.508
2013-09-09 00:47:00,1427E-4,5C000000,-0724,0942,11135,027.4,045.3,0.389,726.6,01.19,0.508
2013-09-09 00:48:00,1460E-4,5C000000,-0724,0943,11188,027.4,045.3,0.389,726.6,01.19,0.508
2013-09-09 00:49:00,1092E-4,5C000000,-0724,0942,11216,027.4,045.3,0.388,726.6,01.19,0.508
2013-09-09 00:50:00,1208E-4,5C000000,-0724,0941,11148,027.4,045.3,0.389,726.6,01.19,0.508
2013-09-09 00:51:00,1096E-4,5C000000,-0724,0941,11123,027.4,045.3,0.389,726.6,01.19,0.508
2013-09-09 00:52:00,1760E-4,5C000000,-0724,0941,11036,027.4,045.3,0.388,726.6,01.19,0.508
2013-09-09 00:53:00,1107E-4,5C000000,-0724,0941,10921,027.4,045.3,0.389,726.6,01.19,0.508
2013-09-09 00:54:00,1612E-4,5C000000,-0724,0941,11197,027.4,045.3,0.389,726.6,01.19,0.508
2013-09-09 00:55:00,2521E-4,5C000000,-0724,0942,11063,027.4,045.3,0.388,726.6,01.19,0.508
2013-09-09 00:56:00,1546E-4,5C000000,-0724,0940,11103,027.4,045.3,0.389,726.6,01.19,0.508
2013-09-09 00:57:00,1756E-4,5C000000,-0724,0941,11101,027.4,045.3,0.389,726.6,01.19,0.508
2013-09-09 00:58:00,1337E-4,5C000000,-0724,0942,11122,027.4,045.3,0.388,726.6,01.19,0.508
2013-09-09 00:59:00,1332E-4,5C000000,-0724,0942,11142,027.4,045.3,0.389,726.6,01.19,0.508
2013-09-09 01:00:00,1888E-4,5C000000,-0724,0942,11128,027.4,045.3,0.389,726.7,01.19,0.508
2013-09-09 01:01:00,1796E-4,5C000000,-0724,0942,11154,027.4,045.3,0.389,726.7,01.19,0.508
2013-09-09 01:02:00,1735E-4,5C000000,-0724,0941,11053,027.4,045.3,0.389,726.7,01.19,0.508
2013-09-09 01:03:00,5563E-5,5C000000,-0724,0941,11011,027.4,045.3,0.389,726.7,01.19,0.508
2013-09-09 01:04:00,5582E-5,5C000000,-0724,0942,11059,027.3,045.3,0.389,726.7,01.19,0.508
2013-09-09 01:05:00,1186E-4,5C000000,-0724,0941,11052,027.3,045.3,0.389,726.7,01.19,0.508
2013-09-09 01:06:00,7331E-5,5C000000,-0724,0941,11159,027.3,045.3,0.388,726.7,01.19,0.508
2013-09-09 01:07:00,1233E-4,5C000000,-0724,0941,11126,027.3,045.3,0.389,726.7,01.19,0.508
2013-09-09 01:08:00,9473E-5,5C000000,-0724,0942,11084,027.4,045.3,0.389,726.7,01.19,0.508
2013-09-09 01:09:00,1395E-4,5C000000,-0724,0941,10985,027.4,045.3,0.388,726.7,01.19,0.508
2013-09-09 01:10:00,1518E-4,5C000000,-0724,0941,11138,027.4,045.3,0.389,726.7,01.19,0.508
2013-09-09 01:11:00,1469E-4,5C000000,-0724,0941,11109,027.4,045.3,0.389,726.7,01.19,0.508
2013-09-09 01:12:00,1536E-4,5C000000,-0724,0942,11018,027.3,045.3,0.389,726.7,01.19,0.508
2013-09-09 01:13:00,9824E-5,5C000000,-0724,0941,11156,027.3,045.3,0.389,726.7,01.19,0.508
2013-09-09 01:14:00,2042E-4,5C000000,-0724,0941,11191,027.3,045.3,0.389,726.8,01.19,0.508
2013-09-09 01:15:00,1513E-4,5C000000,-0724,0940,11070,027.4,045.3,0.389,726.8,01.19,0.508
2013-09-09 01:16:00,1183E-4,5C000000,-0724,0941,11177,027.4,045.3,0.389,726.8,01.19,0.508
2013-09-09 01:17:00,1742E-4,5C000000,-0724,0941,11061,027.4,045.3,0.389,726.8,01.19,0.508
2013-09-09 01:18:00,1429E-4,5C000000,-0724,0941,11068,027.4,045.3,0.389,726.8,01.19,0.508
2013-09-09 01:19:00,1005E-4,5C000000,-0724,0940,11088,027.4,045.3,0.389,726.8,01.19,0.508
2013-09-09 01:20:00,1742E-4,5C000000,-0724,0942,11033,027.4,045.4,0.388,726.8,01.19,0.508
2013-09-09 01:21:00,1558E-4,5C000000,-0724,0941,11295,027.4,045.4,0.389,726.8,01.19,0.508
2013-09-09 01:22:00,1489E-4,5C000000,-0724,0942,11236,027.4,045.3,0.389,726.8,01.19,0.508
2013-09-09 01:23:00,2054E-4,5C000000,-0724,0941,11067,027.4,045.3,0.388,726.8,01.19,0.508
2013-09-09 01:24:00,2210E-4,5C000000,-0724,0942,11224,027.4,045.3,0.389,726.8,01.19,0.508
2013-09-09 01:25:00,7239E-5,5C000000,-0724,0942,11074,027.4,045.3,0.389,726.8,01.19,0.508
2013-09-09 01:26:00,1960E-4,5C000000,-0724,0943,11125,027.4,045.3,0.388,726.8,01.19,0.508
2013-09-09 01:27:00,1561E-4,5C000000,-0724,0941,11167,027.4,045.3,0.389,726.8,01.19,0.508
2013-09-09 01:28:00,1272E-4,5C000000,-0724,0940,11016,027.4,045.3,0.389,726.8,01.19,0.508
2013-09-09 01:29:00,1280E-4,5C000000,-0724,0941,11158,027.4,045.3,0.389,726.8,01.19,0.508
2013-09-09 01:30:00,1243E-4,5C000000,-0724,0942,11052,027.4,045.3,0.389,726.8,01.19,0.508
2013-09-09 01:31:00,4323E-5,5C000000,-0724,0941,11137,027.4,045.3,0.389,726.8,01.19,0.508
2013-09-09 01:32:00,1008E-4,5C000000,-0724,0941,11113,027.4,045.3,0.388,726.8,01.19,0.508
2013-09-09 01:33:00,7534E-5,5C000000,-0724,0941,11003,027.4,045.4,0.389,726.9,01.19,0.508
2013-09-09 01:34:00,7982E-5,5C000000,-0724,0942,11149,027.4,045.3,0.389,726.8,01.19,0.508
2013-09-09 01:35:00,2341E-4,5C000000,-0724,0942,11175,027.5,045.3,0.389,726.9,01.19,0.508
2013-09-09 01:36:00,1119E-4,5C000000,-0724,0941,11142,027.4,045.3,0.389,726.9,01.19,0.508
2013-09-09 01:37:00,1367E-4,5C000000,-0724,0941,11075,027.4,045.3,0.389,726.9,01.19,0.508
2013-09-09 01:38:00,1237E-4,5C000000,-0724,0942,11139,027.4,045.3,0.389,726.8,01.19,0.508
2013-09-09 01:39:00,1211E-4,5C000000,-0724,0942,11021,027.4,045.3,0.389,726.9,01.19,0.508
2013-09-09 01:40:00,2268E-4,5C000000,-0724,0941,10989,027.4,045.4,0.389,726.9,01.19,0.508
2013-09-09 01:41:00,1410E-4,5C000000,-0724,0942,11227,027.4,045.3,0.388,726.8,01.19,0.508
2013-09-09 01:42:00,2099E-4,5C000000,-0724,0942,11134,027.4,045.3,0.389,726.8,01.19,0.508
2013-09-09 01:43:00,1197E-4,5C000000,-0724,0941,11138,027.5,045.3,0.389,726.8,01.19,0.508
2013-09-09 01:44:00,9365E-5,5C000000,-0724,0940,11209,027.4,045.3,0.389,726.9,01.19,0.508
2013-09-09 01:45:00,1368E-4,5C000000,-0724,0941,11140,027.4,045.3,0.389,726.9,01.19,0.508
2013-09-09 01:46:00,1271E-4,5C000000,-0724,0940,11161,027.4,045.3,0.389,726.9,01.19,0.508
2013-09-09 01:47:00,2311E-4,5C000000,-0724,0941,11095,027.4,045.3,0.388,726.9,01.19,0.508
2013-09-09 01:48:00,1399E-4,5C000000,-0724,0941,11089,027.4,045.3,0.389,726.9,01.19,0.508
2013-09-09 01:49:00,1599E-4,5C000000,-0724,0942,11072,027.4,045.3,0.389,726.9,01.19,0.508
2013-09-09 01:50:00,1209E-4,5C000000,-0724,0942,11071,027.4,045.3,0.388,726.9,01.19,0.508
2013-09-09 01:51:00,2421E-4,5C000000,-0724,0942,11047,027.4,045.3,0.389,726.9,01.19,0.508
2013-09-09 01:52:00,3148E-5,5C000000,-0724,0941,11014,027.4,045.4,0.389,726.9,01.19,0.508
2013-09-09 01:53:00,2260E-4,5C000000,-0724,0941,11149,027.4,045.3,0.389,726.9,01.19,0.508
2013-09-09 01:54:00,1651E-4,5C000000,-0724,0941,11018,027.4,045.3,0.389,726.9,01.19,0.508
2013-09-09 01:55:00,1323E-4,5C000000,-0724,0941,11092,027.4,045.3,0.389,726.9,01.19,0.508
2013-09-09 01:56:00,1809E-4,5C000000,-0724,0941,11037,027.4,045.3,0.389,727.0,01.19,0.508
2013-09-09 01:57:00,1537E-4,5C000000,-0724,0942,11226,027.4,045.4,0.389,727.0,01.19,0.508
2013-09-09 01:58:00,8400E-5,5C000000,-0724,0941,10949,027.4,045.3,0.389,727.0,01.19,0.508
2013-09-09 01:59:00,1657E-4,5C000000,-0724,0942,11128,027.3,045.4,0.389,727.0,01.19,0.508
2013-09-09 02:00:00,1907E-4,5C000000,-0724,0941,10996,027.3,045.3,0.389,727.0,01.19,0.508
2013-09-09 02:01:00,3633E-5,5C000000,-0724,0940,11150,027.3,045.3,0.389,727.0,01.19,0.508
2013-09-09 02:02:00,1406E-4,5C000000,-0724,0941,11135,027.3,045.3,0.389,727.0,01.19,0.508
2013-09-09 02:03:00,1248E-4,5C000000,-0724,0942,11037,027.3,045.3,0.389,727.0,01.19,0.508
2013-09-09 02:04:00,1529E-4,5C000000,-0724,0941,11162,027.3,045.3,0.389,727.0,01.19,0.508
2013-09-09 02:05:00,1230E-4,5C000000,-0724,0941,11055,027.3,045.4,0.389,727.0,01.19,0.508
2013-09-09 02:06:00,6222E-5,5C000000,-0724,0942,11102,027.3,045.4,0.389,727.0,01.19,0.508
2013-09-09 02:07:00,1549E-4,5C000000,-0724,0941,11114,027.4,045.3,0.389,727.0,01.19,0.508
2013-09-09 02:08:00,1818E-4,5C000000,-0724,0942,11155,027.4,045.3,0.389,727.0,01.19,0.508
2013-09-09 02:09:00,1498E-4,5C000000,-0724,0941,10929,027.4,045.3,0.389,727.0,01.19,0.508
2013-09-09 02:10:00,1131E-4,5C000000,-0724,0942,11218,027.4,045.3,0.389,727.0,01.19,0.508
2013-09-09 02:11:00,2387E-4,5C000000,-0724,0941,11172,027.4,045.3,0.389,727.1,01.19,0.508
2013-09-09 02:12:00,7902E-5,5C000000,-0724,0941,11086,027.3,045.3,0.389,727.1,01.19,0.508
2013-09-09 02:13:00,1301E-4,5C000000,-0724,0941,10961,027.4,045.3,0.389,727.1,01.19,0.508
2013-09-09 02:14:00,6573E-5,5C000000,-0724,0942,11020,027.4,045.3,0.389,727.1,01.19,0.508
2013-09-09 02:15:00,1550E-4,5C000000,-0724,0942,11069,027.4,045.3,0.389,727.1,01.19,0.508
2013-09-09 02:16:00,1847E-4,5C000000,-0724,0941,11178,027.4,045.4,0.389,727.1,01.19,0.508
2013-09-09 02:17:00,1944E-4,5C000000,-0724,0941,11206,027.4,045.4,0.389,727.1,01.19,0.508
2013-09-09 02:18:00,1576E-4,5C000000,-0724,0942,11213,027.4,045.3,0.389,727.1,01.19,0.508
2013-09-09 02:19:00,1372E-4,5C000000,-0724,0941,11102,027.4,045.3,0.389,727.1,01.19,0.508
2013-09-09 02:20:00,1200E-4,5C000000,-0724,0942,11057,027.3,045.3,0.389,727.1,01.19,0.508
2013-09-09 02:21:00,1021E-4,5C000000,-0724,0942,11114,027.3,045.3,0.389,727.1,01.19,0.508
2013-09-09 02:22:00,8851E-5,5C000000,-0724,0942,11142,027.4,045.3,0.389,727.1,01.19,0.508
2013-09-09 02:23:00,1192E-4,5C000000,-0724,0941,11128,027.4,045.3,0.389,727.1,01.19,0.508
2013-09-09 02:24:00,1304E-4,5C000000,-0724,0941,11054,027.4,045.3,0.389,727.1,01.19,0.508
2013-09-09 02:25:00,1320E-4,5C000000,-0724,0942,11085,027.4,045.3,0.389,727.2,01.19,0.508
2013-09-09 02:26:00,1504E-4,5C000000,-0724,0942,10948,027.4,045.3,0.389,727.2,01.19,0.508
2013-09-09 02:27:00,1520E-4,5C000000,-0724,0941,10997,027.4,045.3,0.389,727.2,01.19,0.508
2013-09-09 02:28:00,2447E-4,5C000000,-0724,0942,11158,027.4,045.3,0.389,727.2,01.19,0.508
2013-09-09 02:29:00,3457E-4,5C000000,-0724,0943,11126,027.4,045.4,0.389,727.2,01.19,0.508
2013-09-09 02:30:00,2334E-4,5C000000,-0724,0942,11035,027.4,045.3,0.389,727.2,01.19,0.508
2013-09-09 02:31:00,2144E-4,5C000000,-0724,0941,11192,027.4,045.3,0.389,727.2,01.19,0.508
2013-09-09 02:32:00,1152E-4,5C000000,-0724,0942,10955,027.4,045.3,0.389,727.2,01.19,0.508
2013-09-09 02:33:00,1027E-4,5C000000,-0724,0941,11124,027.4,045.3,0.389,727.2,01.19,0.508
2013-09-09 02:34:00,1511E-4,5C000000,-0724,0940,11066,027.4,045.3,0.389,727.2,01.19,0.508
2013-09-09 02:35:00,9372E-5,5C000000,-0724,0941,10947,027.4,045.3,0.389,727.2,01.19,0.508
2013-09-09 02:36:00,9041E-5,5C000000,-0724,0941,11107,027.4,045.3,0.389,727.2,01.19,0.508
2013-09-09 02:37:00,7631E-5,5C000000,-0724,0942,11150,027.4,045.3,0.389,727.2,01.19,0.508
2013-09-09 02:38:00,1267E-4,5C000000,-0724,0942,10954,027.4,045.3,0.389,727.3,01.19,0.508
2013-09-09 02:39:00,1575E-4,5C000000,-0724,0942,11218,027.4,045.3,0.389,727.3,01.19,0.508
2013-09-09 02:40:00,2734E-5,5C000000,-0724,0941,11092,027.4,045.3,0.389,727.3,01.19,0.508
2013-09-09 02:41:00,5837E-5,5C000000,-0724,0940,11241,027.4,045.4,0.389,727.3,01.19,0.508
2013-09-09 02:42:00,1104E-4,5C000000,-0724,0942,11005,027.4,045.3,0.389,727.3,01.19,0.508
2013-09-09 02:43:00,6242E-5,5C000000,-0724,0940,11172,027.4,045.3,0.389,727.3,01.19,0.508
2013-09-09 02:44:00,1682E-4,5C000000,-0724,0941,11164,027.4,045.3,0.389,727.3,01.19,0.508
2013-09-09 02:45:00,1552E-4,5C000000,-0724,0941,11059,027.4,045.3,0.389,727.3,01.19,0.508
2013-09-09 02:46:00,2324E-4,5C000000,-0724,0940,11034,027.4,045.3,0.389,727.3,01.19,0.508
2013-09-09 02:47:00,1384E-4,5C000000,-0724,0941,11274,027.4,045.3,0.389,727.3,01.19,0.508
2013-09-09 02:48:00,1076E-4,5C000000,-0724,0940,11201,027.3,045.3,0.389,727.4,01.19,0.508
2013-09-09 02:49:00,9659E-5,5C000000,-0724,0942,11112,027.3,045.3,0.389,727.4,01.19,0.508
2013-09-09 02:50:00,1572E-4,5C000000,-0724,0941,11110,027.3,045.3,0.389,727.4,01.19,0.508
2013-09-09 02:51:00,5826E-5,5C000000,-0724,0941,11164,027.3,045.3,0.389,727.4,01.19,0.508
2013-09-09 02:52:00,1959E-4,5C000000,-0724,0941,10930,027.4,045.3,0.389,727.4,01.19,0.508
2013-09-09 02:53:00,1593E-4,5C000000,-0724,0942,10957,027.4,045.3,0.389,727.4,01.19,0.508
2013-09-09 02:54:00,2003E-4,5C000000,-0724,0943,11087,027.4,045.3,0.389,727.4,01.19,0.508
2013-09-09 02:55:00,8405E-5,5C000000,-0724,0942,11079,027.4,045.3,0.389,727.4,01.19,0.508
2013-09-09 02:56:00,1245E-4,5C000000,-0724,0942,11197,027.3,045.3,0.389,727.4,01.19,0.508
2013-09-09 02:57:00,1691E-4,5C000000,-0724,0942,11147,027.4,045.3,0.389,727.4,01.19,0.508
2013-09-09 02:58:00,2480E-4,5C000000,-0724,0941,11274,027.4,045.4,0.389,727.4,01.19,0.508
2013-09-09 02:59:00,1623E-4,5C000000,-0724,0940,11078,027.4,045.3,0.389,727.4,01.19,0.508
2013-09-09 03:00:00,1375E-4,5C000000,-0724,0941,11011,027.4,045.4,0.389,727.4,01.19,0.508
2013-09-09 03:01:00,9208E-5,5C000000,-0724,0942,11172,027.4,045.4,0.389,727.4,01.19,0.508
2013-09-09 03:02:00,1356E-4,5C000000,-0724,0942,11147,027.4,045.3,0.389,727.5,01.19,0.508
2013-09-09 03:03:00,4923E-5,5C000000,-0724,0941,11114,027.4,045.3,0.390,727.5,01.19,0.508
2013-09-09 03:04:00,1825E-4,5C000000,-0724,0943,11102,027.4,045.3,0.389,727.5,01.19,0.508
2013-09-09 03:05:00,1110E-4,5C000000,-0724,0942,11107,027.4,045.3,0.389,727.5,01.19,0.508
2013-09-09 03:06:00,1249E-4,5C000000,-0724,0942,11249,027.4,045.4,0.389,727.5,01.19,0.508
2013-09-09 03:07:00,1543E-4,5C000000,-0724,0941,11098,027.3,045.3,0.389,727.5,01.19,0.508
2013-09-09 03:08:00,2009E-5,5C000000,-0724,0942,11119,027.3,045.3,0.389,727.5,01.19,0.508
2013-09-09 03:09:00,8989E-5,5C000000,-0724,0941,11132,027.3,045.3,0.389,727.5,01.19,0.508
2013-09-09 03:10:00,1494E-4,5C000000,-0724,0941,11145,027.3,045.3,0.389,727.5,01.19,0.508
2013-09-09 03:11:00,9121E-5,5C000000,-0724,0942,11141,027.3,045.3,0.389,727.5,01.19,0.508
2013-09-09 03:12:00,1048E-4,5C000000,-0724,0942,11100,027.3,045.3,0.389,727.5,01.19,0.508
2013-09-09 03:13:00,6383E-5,5C000000,-0724,0941,11095,027.3,045.3,0.389,727.6,01.19,0.508
2013-09-09 03:14:00,8870E-5,5C000000,-0724,0942,11235,027.3,045.3,0.390,727.6,01.19,0.508
2013-09-09 03:15:00,1043E-4,5C000000,-0724,0942,11272,027.4,045.3,0.389,727.6,01.19,0.508
2013-09-09 03:16:00,7390E-5,5C000000,-0724,0942,11206,027.4,045.4,0.389,727.6,01.19,0.508
2013-09-09 03:17:00,1239E-4,5C000000,-0724,0941,10992,027.4,045.3,0.389,727.6,01.19,0.508
2013-09-09 03:18:00,3109E-5,5C000000,-0724,0942,11033,027.4,045.3,0.389,727.6,01.19,0.508
2013-09-09 03:19:00,1436E-4,5C000000,-0724,0941,11115,027.4,045.3,0.389,727.6,01.19,0.508
2013-09-09 03:20:00,7018E-5,5C000000,-0724,0941,11204,027.3,045.3,0.389,727.6,01.19,0.508
2013-09-09 03:21:00,1487E-4,5C000000,-0724,0942,11097,027.3,045.4,0.389,727.6,01.19,0.508
2013-09-09 03:22:00,1484E-4,5C000000,-0724,0942,11076,027.3,045.3,0.389,727.6,01.19,0.508
2013-09-09 03:23:00,1598E-4,5C000000,-0724,0942,11130,027.3,045.3,0.389,727.6,01.19,0.508
2013-09-09 03:24:00,1343E-4,5C000000,-0724,0942,11062,027.4,045.3,0.389,727.6,01.19,0.508
2013-09-09 03:25:00,6927E-5,5C000000,-0724,0942,11219,027.4,045.3,0.390,727.6,01.19,0.508
2013-09-09 03:26:00,1296E-4,5C000000,-0724,0942,11190,027.4,045.3,0.389,727.6,01.19,0.508
2013-09-09 03:27:00,1343E-4,5C000000,-0724,0942,11158,027.3,045.3,0.389,727.6,01.19,0.508
2013-09-09 03:28:00,2169E-4,5C000000,-0724,0942,11077,027.4,045.3,0.389,727.6,01.19,0.508
2013-09-09 03:29:00,9647E-5,5C000000,-0724,0942,11212,027.4,045.3,0.389,727.6,01.19,0.508
2013-09-09 03:30:00,2126E-4,5C000000,-0724,0941,11047,027.4,045.3,0.389,727.6,01.19,0.508
2013-09-09 03:31:00,1673E-4,5C000000,-0724,0942,11148,027.4,045.3,0.389,727.6,01.19,0.508
2013-09-09 03:32:00,1175E-4,5C000000,-0724,0941,11007,027.4,045.3,0.390,727.6,01.19,0.508
2013-09-09 03:33:00,1066E-4,5C000000,-0724,0942,11033,027.4,045.3,0.389,727.6,01.19,0.508
2013-09-09 03:34:00,3111E-5,5C000000,-0724,0942,11130,027.4,045.3,0.389,727.6,01.19,0.508
2013-09-09 03:35:00,1937E-4,5C000000,-0724,0943,11145,027.4,045.3,0.389,727.6,01.19,0.508
2013-09-09 03:36:00,6973E-5,5C000000,-0724,0942,11152,027.4,045.3,0.389,727.6,01.19,0.508
2013-09-09 03:37:00,7574E-5,5C000000,-0724,0942,11077,027.4,045.3,0.389,727.6,01.19,0.508
2013-09-09 03:38:00,9869E-5,5C000000,-0724,0943,11184,027.4,045.3,0.389,727.6,01.19,0.508
2013-09-09 03:39:00,6581E-5,5C000000,-0724,0942,10982,027.4,045.3,0.389,727.7,01.19,0.508
2013-09-09 03:40:00,9871E-5,5C000000,-0724,0943,11254,027.4,045.3,0.390,727.6,01.19,0.508
2013-09-09 03:41:00,2037E-4,5C000000,-0724,0942,11107,027.4,045.3,0.389,727.7,01.19,0.508
2013-09-09 03:42:00,1691E-4,5C000000,-0724,0942,11144,027.4,045.3,0.389,727.7,01.19,0.508
2013-09-09 03:43:00,8291E-5,5C000000,-0724,0942,11176,027.3,045.3,0.389,727.7,01.19,0.508
2013-09-09 03:44:00,4922E-5,5C000000,-0724,0942,11015,027.3,045.4,0.389,727.7,01.19,0.508
2013-09-09 03:45:00,9662E-5,5C000000,-0724,0942,11227,027.3,045.3,0.389,727.7,01.19,0.508
2013-09-09 03:46:00,1536E-4,5C000000,-0724,0942,11073,027.3,045.3,0.389,727.7,01.19,0.508
2013-09-09 03:47:00,1486E-4,5C000000,-0724,0941,10979,027.3,045.3,0.389,727.7,01.19,0.508
2013-09-09 03:48:00,9712E-5,5C000000,-0724,0942,11128,027.3,045.3,0.390,727.7,01.19,0.508
2013-09-09 03:49:00,1652E-4,5C000000,-0724,0942,10915,027.3,045.3,0.389,727.7,01.19,0.508
2013-09-09 03:50:00,1615E-4,5C000000,-0724,0942,11122,027.3,045.3,0.389,727.7,01.19,0.508
2013-09-09 03:51:00,1045E-4,5C000000,-0724,0942,11089,027.3,045.3,0.389,727.7,01.19,0.508
2013-09-09 03:52:00,8760E-5,5C000000,-0724,0941,11015,027.3,045.3,0.390,727.7,01.19,0.508
2013-09-09 03:53:00,1043E-4,5C000000,-0724,0942,10980,027.3,045.3,0.389,727.7,01.19,0.508
2013-09-09 03:54:00,9024E-5,5C000000,-0724,0943,11232,027.3,045.4,0.389,727.7,01.19,0.508
2013-09-09 03:55:00,1258E-4,5C000000,-0724,0942,10994,027.3,045.3,0.390,727.7,01.19,0.508
2013-09-09 03:56:00,1452E-4,5C000000,-0724,0942,11156,027.3,045.3,0.390,727.7,01.19,0.508
2013-09-09 03:57:00,1513E-4,5C000000,-0724,0942,11082,027.3,045.3,0.389,727.7,01.19,0.508
2013-09-09 03:58:00,8644E-5,5C000000,-0724,0941,11155,027.3,045.3,0.389,727.7,01.19,0.508
2013-09-09 03:59:00,1290E-4,5C000000,-0724,0942,11032,027.3,045.3,0.390,727.7,01.19,0.508
2013-09-09 04:00:00,1349E-4,5C000000,-0724,0942,11192,027.3,045.3,0.389,727.8,01.19,0.508
2013-09-09 04:01:00,7345E-5,5C000000,-0724,0942,11021,027.3,045.3,0.389,727.8,01.19,0.508
2013-09-09 04:02:00,2105E-4,5C000000,-0724,0942,10918,027.3,045.3,0.389,727.8,01.19,0.508
2013-09-09 04:03:00,1112E-4,5C000000,-0724,0941,11144,027.4,045.4,0.390,727.8,01.19,0.508
2013-09-09 04:04:00,1090E-4,5C000000,-0724,0942,11060,027.4,045.3,0.389,727.8,01.19,0.508
2013-09-09 04:05:00,1093E-5,5C000000,-0724,0943,11098,027.3,045.3,0.389,727.8,01.19,0.508
2013-09-09 04:06:00,9007E-5,5C000000,-0724,0942,11071,027.3,045.3,0.389,727.8,01.19,0.508
2013-09-09 04:07:00,1178E-4,5C000000,-0724,0942,11103,027.3,045.3,0.390,727.8,01.19,0.508
2013-09-09 04:08:00,1877E-4,5C000000,-0724,0943,11091,027.3,045.3,0.389,727.8,01.19,0.508
2013-09-09 04:09:00,2343E-4,5C000000,-0724,0942,10990,027.3,045.3,0.389,727.7,01.19,0.508
2013-09-09 04:10:00,1645E-4,5C000000,-0724,0942,11118,027.3,045.3,0.389,727.8,01.19,0.508
2013-09-09 04:11:00,1324E-4,5C000000,-0724,0942,11113,027.3,045.3,0.390,727.8,01.19,0.508
2013-09-09 04:12:00,1240E-4,5C000000,-0724,0942,11043,027.3,045.3,0.389,727.8,01.19,0.508
2013-09-09 04:13:00,1132E-4,5C000000,-0724,0943,11081,027.3,045.3,0.389,727.8,01.19,0.508
2013-09-09 04:14:00,9635E-5,5C000000,-0724,0942,11213,027.3,045.3,0.390,727.8,01.19,0.508
2013-09-09 04:15:00,1276E-4,5C000000,-0724,0942,11097,027.3,045.3,0.390,727.8,01.19,0.508
2013-09-09 04:16:00,9700E-5,5C000000,-0724,0941,11237,027.3,045.4,0.389,727.8,01.19,0.508
2013-09-09 04:17:00,1409E-4,5C000000,-0724,0943,11157,027.3,045.3,0.389,727.8,01.19,0.508
2013-09-09 04:18:00,1332E-4,5C000000,-0724,0942,11136,027.3,045.3,0.389,727.8,01.19,0.508
2013-09-09 04:19:00,6419E-5,5C000000,-0724,0942,11136,027.4,045.3,0.390,727.8,01.19,0.508
2013-09-09 04:20:00,5235E-5,5C000000,-0724,0942,10995,027.3,045.3,0.389,727.9,01.19,0.508